Hourly Data Report for October 05, 2014

All times are specified in Local Standard Time (LST). Add 1 hour to adjust for Daylight Saving Time where and when it is observed.

IQALUIT CLIMATE
NUNAVUT

63°44'50.000" N
68°32'40.000" W
33.50 m
2402592
71321
XFB

Download Data

Hourly Data (October 2014)
Hourly Data Report for October 5, 2014
Temp Definition
°C
Dew Point Temp Definition
°C
Rel Hum Definition
%
Wind Dir Definition
10's deg

Wind Spd Definition
km/h
Visibility Definition
km
Stn Press Definition
kPa
Hmdx Definition


Wind Chill Definition


Weather Definition


TIME
00:00 0.7 -3.3 75 13 33   101.55     LegendNANA
01:00 1.0 -2.8 76 13 35   101.54     LegendNANA
02:00 1.1 -2.7 76 13 32   101.56     LegendNANA
03:00 1.4 -2.3 77 14 36   101.53     LegendNANA
04:00 1.4 -2.1 77 14 35   101.54     LegendNANA
05:00 1.4 -1.9 79 14 37   101.53     LegendNANA
06:00 1.6 -1.5 80 14 40   101.52     LegendNANA
07:00 1.8 -1.3 80 14 42   101.52     LegendNANA
08:00 1.9 -1.0 81 14 39   101.52     LegendNANA
09:00 1.9 -1.0 81 14 36   101.55     LegendNANA
10:00 1.9 -0.6 84 14 34   101.54     LegendNANA
11:00 2.2 -0.6 82 14 39   101.46     LegendNANA
12:00 2.1 -0.5 83 14 33   101.46     LegendNANA
13:00 2.2 -0.2 84 14 39   101.43     LegendNANA
14:00 2.4 -0.2 83 14 35   101.41     LegendNANA
15:00 2.4 0.0 84 14 34   101.44     LegendNANA
16:00 2.4 0.1 85 14 44   101.40     LegendNANA
17:00 2.5 0.1 84 14 37   101.43     LegendNANA
18:00 2.6 0.3 84 14 37   101.43     LegendNANA
19:00 3.0 0.5 83 14 37   101.44     LegendNANA
20:00 2.8 0.4 84 14 34   101.40     LegendNANA
21:00 3.2 0.4 82 13 33   101.38     LegendNANA
22:00 2.7 0.4 85 13 21   101.32     LegendNANA
23:00 1.5 0.6 94 14 13   101.28     LegendNANA

Notes on Data Quality.

Legend

  • E = Estimated
  • M = Missing
  • NA = Not Available
  • ‡ = Partner data that is not subject to review by the National Climate Archives
Date modified: